• In Russia
  • List of Countries
  • For 7 days
  • Water Temperature
  • Satellite Maps
  • Weather Map
  • Weather Widgets
  • user-avatar
    Login

    Hourly Weather Lampeter

    Today, 13 December, Thursday

    Time Temperature Precipitation Wind Pressure Humidity
    00:00 0°C° 0 mm 7 mps 757 mmHg 76%
    01:00 0°C° 0 mm 7 mps 757 mmHg 77%
    02:00 0°C° 0 mm 7 mps 756 mmHg 78%
    03:00 0°C° 0 mm 7 mps 756 mmHg 79%
    04:00 0°C° 0 mm 7 mps 756 mmHg 79%
    05:00 0°C° 0 mm 7 mps 756 mmHg 80%
    06:00 0°C° 0 mm 7 mps 756 mmHg 81%
    07:00 0°C° 0 mm 7 mps 756 mmHg 81%
    08:00 0°C° 0 mm 7 mps 757 mmHg 81%
    09:00 -1°C° 0 mm 7 mps 757 mmHg 81%
    10:00 0°C° 0 mm 7 mps 757 mmHg 78%
    11:00 0°C° 0 mm 8 mps 757 mmHg 75%
    12:00 +1°C° 0 mm 8 mps 757 mmHg 73%
    13:00 +2°C° 0 mm 7 mps 758 mmHg 73%
    14:00 +2°C° 0 mm 7 mps 758 mmHg 74%
    15:00 +1°C° 0 mm 6 mps 758 mmHg 75%
    16:00 +1°C° 0 mm 6 mps 758 mmHg 78%
    17:00 +1°C° 0 mm 6 mps 759 mmHg 81%
    18:00 -1°C° 0 mm 6 mps 759 mmHg 83%
    19:00 -1°C° 0 mm 6 mps 759 mmHg 84%
    20:00 0°C° 0 mm 5 mps 760 mmHg 85%
    21:00 0°C° 0 mm 5 mps 760 mmHg 86%
    22:00 0°C° 0 mm 5 mps 760 mmHg 87%
    23:00 -1°C° 0 mm 4 mps 761 mmHg 87%

    Tomorrow, 14 December, Friday

    Time Temperature Precipitation Wind Pressure Humidity
    00:00 -1°C° 0 mm 4 mps 761 mmHg 88%
    01:00 -1°C° 0 mm 4 mps 761 mmHg 88%
    02:00 -1°C° 0 mm 4 mps 761 mmHg 89%
    03:00 -1°C° 0 mm 4 mps 761 mmHg 89%
    04:00 -1°C° 0 mm 4 mps 761 mmHg 89%
    05:00 -1°C° 0 mm 4 mps 761 mmHg 88%
    06:00 -1°C° 0 mm 4 mps 761 mmHg 88%
    07:00 -1°C° 0 mm 4 mps 761 mmHg 88%
    08:00 -1°C° 0 mm 4 mps 761 mmHg 87%
    09:00 -1°C° 0 mm 4 mps 761 mmHg 87%
    10:00 0°C° 0 mm 5 mps 761 mmHg 82%
    11:00 +1°C° 0 mm 5 mps 761 mmHg 77%
    12:00 +2°C° 0 mm 6 mps 760 mmHg 72%
    13:00 +1°C° 0 mm 6 mps 760 mmHg 73%
    14:00 +1°C° 0 mm 5 mps 760 mmHg 74%
    15:00 +1°C° 0 mm 5 mps 760 mmHg 75%
    16:00 -1°C° 0 mm 6 mps 760 mmHg 76%
    17:00 -1°C° 0 mm 6 mps 759 mmHg 77%
    18:00 -2°C° 0 mm 7 mps 759 mmHg 78%
    19:00 -2°C° 0 mm 7 mps 759 mmHg 76%
    20:00 -2°C° 0 mm 7 mps 758 mmHg 75%
    21:00 -2°C° 0 mm 7 mps 758 mmHg 74%
    22:00 -2°C° 0 mm 7 mps 758 mmHg 73%
    23:00 -1°C° 0 mm 7 mps 757 mmHg 72%

    Day after tomorrow, 15 December, Saturday

    Time Temperature Precipitation Wind Pressure Humidity
    00:00 -1°C° 0 mm 8 mps 757 mmHg 71%
    01:00 -1°C° 0 mm 8 mps 756 mmHg 71%
    02:00 -1°C° 0 mm 8 mps 756 mmHg 71%
    03:00 -1°C° 0 mm 8 mps 755 mmHg 70%
    04:00 -1°C° 0 mm 9 mps 754 mmHg 71%
    05:00 -1°C° 0 mm 9 mps 754 mmHg 71%
    06:00 -1°C° 0 mm 9 mps 753 mmHg 71%
    07:00 -1°C° 0.2 mm 9 mps 752 mmHg 72%
    08:00 -2°C° 0.2 mm 10 mps 751 mmHg 73%
    09:00 -2°C° 0.2 mm 10 mps 750 mmHg 74%
    10:00 -2°C° 0.3 mm 10 mps 750 mmHg 76%
    11:00 -2°C° 0.3 mm 11 mps 749 mmHg 78%
    12:00 -1°C° 0.3 mm 11 mps 748 mmHg 80%
    13:00 -1°C° 0.1 mm 11 mps 747 mmHg 81%
    14:00 -1°C° 0.1 mm 11 mps 746 mmHg 82%
    15:00 -1°C° 0.1 mm 11 mps 744 mmHg 82%
    16:00 -1°C° 0.7 mm 11 mps 743 mmHg 83%
    17:00 -1°C° 0.7 mm 11 mps 741 mmHg 84%
    18:00 -1°C° 0.7 mm 12 mps 740 mmHg 85%
    19:00 0°C° 2 mm 12 mps 738 mmHg 86%
    20:00 0°C° 2 mm 12 mps 736 mmHg 87%
    21:00 +2°C° 2 mm 12 mps 734 mmHg 88%
    22:00 +2°C° 0.8 mm 11 mps 733 mmHg 88%
    23:00 +3°C° 0.8 mm 10 mps 732 mmHg 89%

    16 December, Sunday

    Time Temperature Precipitation Wind Pressure Humidity
    00:00 +3°C° 0.8 mm 9 mps 731 mmHg 89%
    01:00 +3°C° 0.6 mm 10 mps 731 mmHg 87%
    02:00 +3°C° 0.6 mm 11 mps 732 mmHg 85%
    03:00 +3°C° 0.6 mm 11 mps 732 mmHg 83%
    04:00 +3°C° 0.2 mm 11 mps 733 mmHg 81%
    05:00 +3°C° 0.2 mm 11 mps 735 mmHg 78%
    06:00 +2°C° 0.2 mm 11 mps 736 mmHg 76%
    07:00 +2°C° 0 mm 10 mps 738 mmHg 77%
    08:00 +2°C° 0 mm 9 mps 740 mmHg 79%
    09:00 +2°C° 0 mm 7 mps 741 mmHg 81%
    10:00 +3°C° 0 mm 7 mps 742 mmHg 81%
    11:00 +3°C° 0 mm 7 mps 743 mmHg 81%
    12:00 +3°C° 0 mm 6 mps 744 mmHg 81%
    13:00 +3°C° 0 mm 6 mps 745 mmHg 83%
    14:00 +3°C° 0 mm 5 mps 745 mmHg 85%
    15:00 +3°C° 0 mm 4 mps 745 mmHg 87%
    16:00 +3°C° 0 mm 4 mps 746 mmHg 88%
    17:00 +1°C° 0 mm 4 mps 746 mmHg 90%
    18:00 +1°C° 0 mm 3 mps 747 mmHg 92%
    19:00 +1°C° 0 mm 3 mps 747 mmHg 92%
    20:00 +1°C° 0 mm 3 mps 748 mmHg 93%
    21:00 +1°C° 0 mm 3 mps 748 mmHg 93%
    22:00 +1°C° 0 mm 3 mps 748 mmHg 93%
    23:00 +1°C° 0 mm 3 mps 749 mmHg 93%

    17 December, Monday

    Time Temperature Precipitation Wind Pressure Humidity
    00:00 +1°C° 0 mm 3 mps 749 mmHg 93%
    01:00 +1°C° 0 mm 3 mps 749 mmHg 93%
    02:00 +1°C° 0 mm 3 mps 749 mmHg 93%
    03:00 +1°C° 0 mm 3 mps 749 mmHg 93%
    04:00 +1°C° 0 mm 3 mps 750 mmHg 93%
    05:00 +1°C° 0 mm 3 mps 750 mmHg 93%
    06:00 +2°C° 0 mm 2 mps 751 mmHg 94%
    07:00 +2°C° 0 mm 2 mps 751 mmHg 94%
    08:00 +2°C° 0 mm 2 mps 752 mmHg 94%
    09:00 +2°C° 0 mm 2 mps 752 mmHg 94%
    10:00 +2°C° 0 mm 2 mps 752 mmHg 93%
    11:00 +3°C° 0 mm 2 mps 753 mmHg 92%
    12:00 +4°C° 0 mm 2 mps 753 mmHg 91%
    13:00 +4°C° 0 mm 2 mps 753 mmHg 92%
    14:00 +4°C° 0 mm 2 mps 753 mmHg 93%
    15:00 +3°C° 0 mm 3 mps 753 mmHg 93%
    16:00 +2°C° 0 mm 3 mps 753 mmHg 93%
    17:00 +1°C° 0 mm 4 mps 753 mmHg 93%
    18:00 +1°C° 0 mm 4 mps 752 mmHg 93%
    19:00 +1°C° 0 mm 4 mps 752 mmHg 92%
    20:00 +1°C° 0 mm 5 mps 752 mmHg 91%
    21:00 +1°C° 0 mm 5 mps 752 mmHg 91%
    22:00 +2°C° 0 mm 5 mps 751 mmHg 90%
    23:00 +2°C° 0 mm 6 mps 751 mmHg 90%

    18 December, Tuesday

    Time Temperature Precipitation Wind Pressure Humidity
    00:00 +2°C° 0 mm 6 mps 751 mmHg 90%
    01:00 +3°C° 0 mm 7 mps 750 mmHg 89%
    02:00 +3°C° 0 mm 7 mps 749 mmHg 89%
    03:00 +4°C° 0 mm 8 mps 748 mmHg 89%
    04:00 +4°C° 0 mm 8 mps 747 mmHg 88%
    05:00 +5°C° 0 mm 8 mps 746 mmHg 88%
    06:00 +5°C° 0 mm 9 mps 746 mmHg 87%
    07:00 +6°C° 0.3 mm 9 mps 745 mmHg 87%
    08:00 +6°C° 0.3 mm 9 mps 745 mmHg 87%
    09:00 +6°C° 0.3 mm 10 mps 745 mmHg 86%
    10:00 +6°C° 0.9 mm 9 mps 745 mmHg 87%
    11:00 +6°C° 0.9 mm 9 mps 744 mmHg 87%
    12:00 +7°C° 0.9 mm 9 mps 744 mmHg 87%
    13:00 +6°C° 0.9 mm 9 mps 744 mmHg 88%
    14:00 +6°C° 0.9 mm 8 mps 744 mmHg 88%
    15:00 +6°C° 0.9 mm 8 mps 743 mmHg 88%
    16:00 +6°C° 0.5 mm 7 mps 743 mmHg 89%
    17:00 +6°C° 0.5 mm 7 mps 743 mmHg 90%
    18:00 +5°C° 0.5 mm 6 mps 743 mmHg 91%
    19:00 +5°C° 0.7 mm 6 mps 743 mmHg 92%
    20:00 +6°C° 0.7 mm 5 mps 744 mmHg 93%
    21:00 +5°C° 0.7 mm 5 mps 744 mmHg 94%
    22:00 +5°C° 1.2 mm 5 mps 743 mmHg 93%
    23:00 +4°C° 1.2 mm 6 mps 743 mmHg 93%
    Show more